Location: Newark
(15.4608°S, 41.1635°W)
Time: 15:42:43
(UTC+00:00)

X-37B - Visible Passes

Search period start: 26 September 2020 00:00
Search period end: 06 October 2020 00:00
Orbit: 386 x 387 km, 45.0° (Epoch: 18 September)

Date Brightness Start Highest point End Pass type
(mag) Time Alt. Az. Time Alt. Az. Time Alt. Az.
30 Sep 3.5 07:47:32 10° NNE 07:49:19 14° NE 07:51:06 10° E visible
02 Oct 1.9 07:26:12 14° NNW 07:28:39 37° NE 07:31:39 10° ESE visible
03 Oct 3.7 06:31:05 13° ENE 06:31:05 13° ENE 06:31:59 10° E visible
04 Oct 0.5 07:08:08 69° SSW 07:08:08 69° SSW 07:11:13 10° SE visible
05 Oct 3.0 07:45:09 10° WSW 07:46:10 11° SW 07:47:11 10° SSW visible
